Home > Weather > Førde > Past weeks

Flag for Norway Past Weather in Førde, Norway — Yesterday and Last 2 Weeks

Now
52 °F

Rain showers. Broken clouds.


Feels Like: 49 °F
Forecast: 49 / 55 °F
Wind: 9 mph from Southwest

Location: Forde / Bringeland

Current Time: Aug 26, 2016 at 10:01:22 PM

Latest Report: Aug 26, 2016 at 9:20 PM


Visibility: 4 mi

Pressure: 29.77 "Hg

Humidity: 94%

Dew Point: 50 °F

Location of FørdeLocation

Past Weather in Førde — Graph

°F

Førde Temperature Yesterday

Maximum temperature yesterday: 64 °F (at 5:50 PM)
Minimum temperature yesterday: 54 °F (at 5:50 AM)
Average temperature yesterday: 58 °F

High & Low Weather Summary for the Past Weeks

 TemperatureHumidityPressure
High72 °F (Aug 16, 3:50 PM)100% (Aug 12, 4:20 PM)30.27 "Hg (Aug 12, 4:20 PM)
Low45 °F (Aug 11, 9:50 PM)43% (Aug 22, 1:50 PM)29.53 "Hg (Aug 12, 4:50 PM)
Average57 °F85%29.98 "Hg
* Reported Aug 11 8:50 PM — Aug 26 8:50 PM, Førde, Weather by CustomWeather, © 2016

Note: Actual official high and low records may vary slightly from our data, if they occured in-between our weather recording intervals... More about our weather records

Advertising

Førde Weather History for the Previous 24 Hours

Scroll right to see more
 ConditionsComfort  
Time TempWeatherWind HumidityBarometerVisibility
8:50 PM
Fri, Aug 26
52 °FSprinkles. Broken clouds.9 mph94%29.74 "HgN/A
8:20 PM52 °FSprinkles. Broken clouds.12 mph94%29.74 "HgN/A
7:50 PM52 °FRain showers. Broken clouds.13 mph94%29.71 "Hg1 mi
6:50 PM52 °FLight rain. Broken clouds.16 mph100%29.68 "Hg4 mi
6:20 PM52 °FLight rain. Fog.9 mph100%29.68 "Hg2 mi
5:50 PM54 °FLight rain. Fog.7 mph94%29.65 "Hg2 mi
5:20 PM54 °FLight rain. Broken clouds.7 mph94%29.65 "Hg1 mi
4:50 PM54 °FLight rain. Fog.7 mph94%29.65 "Hg1 mi
3:50 PM54 °FLight rain. Fog.13 mph94%29.65 "Hg1 mi
3:20 PM54 °FLight rain. Fog.14 mph100%29.62 "Hg2 mi
2:50 PM55 °FLight rain. Fog.9 mph94%29.59 "Hg1 mi
2:20 PM55 °FLight rain. Fog.10 mph94%29.59 "Hg1 mi
1:50 PM55 °FRain. Fog.9 mph94%29.56 "Hg1 mi
1:20 PM55 °FLight rain. Fog.5 mph94%29.53 "Hg3 mi
12:50 PM55 °FLight rain. Fog.5 mph94%29.56 "Hg2 mi
12:20 PM55 °FCool.5 mph94%29.56 "HgN/A
11:20 AM55 °FRain. Broken clouds.5 mph94%29.62 "Hg4 mi
10:50 AM55 °FRain. Broken clouds.8 mph94%29.65 "Hg5 mi
10:20 AM55 °FLight rain. Partly sunny.8 mph94%29.68 "HgN/A
9:50 AM55 °FRain. Broken clouds.2 mph94%29.71 "HgN/A
9:20 AM55 °FLight rain. Broken clouds.2 mph94%29.74 "HgN/A
8:50 AM55 °FLight rain. Partly sunny.2 mph94%29.77 "HgN/A
8:20 AM55 °FLight rain. Partly sunny.2 mph94%29.77 "HgN/A
7:50 AM57 °FCool.3 mph88%29.77 "HgN/A
7:20 AM57 °FCool.3 mph88%29.83 "HgN/A
6:50 AM57 °FCool.3 mph88%29.83 "HgN/A
6:20 AM57 °FCool.8 mph82%29.86 "HgN/A
5:50 AM57 °FCool.5 mph88%29.86 "HgN/A
Weather by CustomWeather, © 2016

See weather overviewHow to use our weather pages